2019�N�x�@��C������Ԃɂ�鑪�茋��,,,,,,,,,,,,,,,
,,,,,,,,,,,,,,,
�P�@����n�_,,,,,,,,,,,,,,,
�򓇑��؏�i�򓇑��؏�Q����67�|�P),,,,,,,,,,,,,,,
,,,,,,,,,,,,,,,
�Q�@���Ԓl�i�m��l�j��2019�N12��4���`2019�N12��26��,,,,,,,,,,,,,,,
,,,,,,,,,,,,,,,
,�N,��,��,��,SO2,SPM,Ox,CO,NO,NO2,PM2.5,���x,���x,����,����
,,,,,ppm,mg/m3,ppm,ppm,ppm,ppm,��g/m3,��,%,�ő�,m/s
H03,2019,12,4,1,������,0.01,0.02,�Z����,������,������,9,7.5,67.8,N,0.8
H03,2019,12,4,2,0.001,0.007,0.024,0.2,0.004,0.013,5,7.4,69.7,N,0.9
H03,2019,12,4,3,0.001,0.004,0.021,0.2,0.012,0.016,5,7,69.4,NE,0.6
H03,2019,12,4,4,0.001,0.006,0.018,0.2,0.006,0.024,6,6.7,71,NE,0.4
H03,2019,12,4,5,0.001,0.011,0.01,0.3,0.011,0.031,8,6.6,69.8,NE,0.6
H03,2019,12,4,6,0.001,0.009,0.006,0.3,0.051,0.042,8,6.5,69.8,NNE,0.3
H03,2019,12,4,7,0.002,0.011,0.007,0.3,0.078,0.046,9,6.6,72,NE,0.5
H03,2019,12,4,8,0.001,0.012,0.007,0.5,0.096,0.046,10,8.2,61.5,NE,0.6
H03,2019,12,4,9,0.001,0.015,0.007,0.3,0.087,0.045,15,9.6,49.2,N,0.7
H03,2019,12,4,10,0.002,0.017,0.01,0.3,0.08,0.04,17,10.6,47.4,ENE,0.8
H03,2019,12,4,11,0.002,0.017,0.015,0.3,0.041,0.033,15,12.4,46.4,NE,0.7
H03,2019,12,4,12,0.002,0.015,0.012,0.3,0.079,0.043,12,12.1,48,NNW,1.2
H03,2019,12,4,13,0.001,0.012,0.019,0.3,0.038,0.031,12,13.3,44.8,NW,1.6
H03,2019,12,4,14,0.001,0.013,0.015,0.3,0.064,0.037,12,12.8,48,WNW,1.9
H03,2019,12,4,15,0.002,0.014,0.012,0.3,0.068,0.037,16,11.4,60.7,NW,1.5
H03,2019,12,4,16,0.001,0.01,0.014,0.3,0.053,0.032,13,9.9,65.7,NW,1.1
H03,2019,12,4,17,0.001,0.012,0.012,0.4,0.049,0.034,12,9.6,70.4,NW,1.3
H03,2019,12,4,18,0.001,0.005,0.016,0.3,0.034,0.028,4,9.2,70.8,NW,1.2
H03,2019,12,4,19,0.001,0.003,0.021,0.3,0.022,0.024,3,8.9,67.3,NW,1.2
H03,2019,12,4,20,0.001,0.002,0.028,0.2,0.011,0.018,5,8.7,66.6,WNW,1.9
H03,2019,12,4,21,0.001,0.006,0.031,0.2,0.006,0.013,5,8.4,69.1,WNW,1.2
H03,2019,12,4,22,0.001,0.004,0.03,0.2,0.005,0.013,4,8.1,69.1,WNW,1.6
H03,2019,12,4,23,0.001,0.005,0.033,0.2,0.005,0.012,5,8.1,68.8,W,1.3
H03,2019,12,4,24,0.001,0.003,0.032,0.2,0.004,0.012,4,8,67.2,WNW,1.5
H03,2019,12,5,1,0,0.007,0.036,0.2,0.003,0.007,7,7.5,73.1,NW,0.7
H03,2019,12,5,2,0.001,0.006,0.033,0.2,0.004,0.009,4,7,74.7,NW,0.6
H03,2019,12,5,3,0.001,0.004,0.03,0.2,0.005,0.011,5,7.2,74.6,NW,1.2
H03,2019,12,5,4,0.001,0.005,0.028,0.2,0.005,0.014,8,6.3,79.4,WNW,0.3
H03,2019,12,5,5,0.001,0.009,0.019,0.2,0.006,0.025,8,6.2,79.3,ENE,0.6
H03,2019,12,5,6,0.001,0.008,0.012,0.3,0.013,0.032,4,6.1,78.9,NE,0.5
H03,2019,12,5,7,0.001,0.012,0.012,0.3,0.022,0.037,8,6,80.4,ENE,0.5
H03,2019,12,5,8,0.001,0.012,0.014,0.3,0.03,0.035,9,6.8,73.1,CALM,0.2
H03,2019,12,5,9,0.002,0.013,0.012,0.3,0.091,0.048,16,10.1,49.6,N,0.8
H03,2019,12,5,10,0.001,0.013,0.008,0.3,0.122,0.061,13,10.2,50.1,WNW,0.9
H03,2019,12,5,11,0.002,0.015,0.006,0.3,0.135,0.049,14,10.5,51.5,NW,0.7
H03,2019,12,5,12,0.001,0.013,0.011,0.2,0.086,0.044,13,10.5,58.5,WNW,1.4
H03,2019,12,5,13,0.001,0.008,0.019,0.2,0.042,0.031,8,10.2,61.1,WNW,1.5
H03,2019,12,5,14,0.001,0.009,0.014,0.2,0.069,0.039,8,10.5,56.8,WNW,1.6
H03,2019,12,5,15,0.001,0.007,0.017,0.2,0.053,0.036,7,10,61.1,WNW,1.4
H03,2019,12,5,16,0.001,0.008,0.011,0.2,0.068,0.044,11,9.8,58.4,NW,1.1
H03,2019,12,5,17,0.001,0.006,0.015,0.2,0.042,0.038,8,8.8,62.1,NW,1.2
H03,2019,12,5,18,0.001,0.008,0.015,0.2,0.038,0.036,9,8.6,63.4,NW,0.8
H03,2019,12,5,19,0.001,0.005,0.022,0.2,0.024,0.026,7,7.8,68.5,NW,1.1
H03,2019,12,5,20,0.001,0.005,0.029,0.2,0.014,0.017,5,7.7,67,NW,1.7
H03,2019,12,5,21,0.001,0.005,0.03,0.2,0.006,0.014,4,7.2,70.3,NNW,1.4
H03,2019,12,5,22,0.001,0.008,0.033,0.2,0.005,0.01,10,7.3,68.8,NW,1.2
H03,2019,12,5,23,0.001,0.01,0.026,0.3,0.006,0.017,10,7.7,65.6,NNW,1.1
H03,2019,12,5,24,0.001,0.018,0.029,0.3,0.006,0.014,19,7.5,67.2,NW,0.7
H03,2019,12,6,1,0.002,0.014,0.027,0.3,0.005,0.015,14,7.1,71.8,NNW,1
H03,2019,12,6,2,0.002,0.014,0.028,0.2,0.004,0.013,15,6.9,71.3,N,1.6
H03,2019,12,6,3,0.001,0.006,0.029,0.2,0.003,0.012,8,6.6,71,N,1.8
H03,2019,12,6,4,0.002,0.006,0.028,0.2,0.006,0.014,7,6.8,70.9,NW,0.9
H03,2019,12,6,5,0.002,0.01,0.026,0.2,0.009,0.018,7,6.4,72,NNW,1.6
H03,2019,12,6,6,0.002,0.008,0.019,0.2,0.019,0.026,6,6.5,72.8,NW,1.1
H03,2019,12,6,7,0.001,0.004,0.015,0.2,0.034,0.034,7,6.4,72.9,NW,0.5
H03,2019,12,6,8,0.002,0.004,0.006,0.3,0.066,0.043,4,6.6,68.4,NNW,0.6
H03,2019,12,6,9,0.001,0.007,0.005,0.3,0.103,0.045,12,7.1,62.7,NNW,1
H03,2019,12,6,10,0.001,0.013,0.012,0.3,0.075,0.034,14,8.9,51.7,NNW,1.8
H03,2019,12,6,11,0.001,0.008,0.013,0.2,0.071,0.035,8,9.2,46,NW,1.7
H03,2019,12,6,12,0.001,0.009,0.012,0.2,0.069,0.034,10,9.3,47.8,NW,1.3
H03,2019,12,6,13,0.001,0.007,0.017,0.2,0.045,0.028,7,9.2,48.3,NW,1.3
H03,2019,12,6,14,0.001,0.004,0.014,0.2,0.062,0.031,7,9.2,51.5,NW,1.4
H03,2019,12,6,15,0.001,0.005,0.012,0.2,0.068,0.038,6,9.1,47.8,NW,1.6
H03,2019,12,6,16,0.001,0.008,0.012,0.2,0.058,0.031,8,8.7,47.4,NNW,1.3
H03,2019,12,6,17,0.001,0.005,0.013,0.2,0.046,0.035,5,8.3,48.8,NW,1.1
H03,2019,12,6,18,0.001,0.007,0.012,0.3,0.037,0.032,4,7.7,51.9,NW,0.8
H03,2019,12,6,19,0.001,0.007,0.015,0.3,0.026,0.027,8,7.3,51.4,NW,1.4
H03,2019,12,6,20,0.001,0.008,0.022,0.2,0.013,0.017,7,6.9,54.5,NW,0.7
H03,2019,12,6,21,0.001,0.005,0.022,0.2,0.01,0.017,4,6.5,54.8,NW,1.1
H03,2019,12,6,22,0.001,0.006,0.023,0.2,0.006,0.013,8,6.4,57.3,NW,0.8
H03,2019,12,6,23,0.001,0.005,0.022,0.2,0.008,0.015,5,6.5,56.3,WNW,1.2
H03,2019,12,6,24,0.001,0.003,0.024,0.2,0.006,0.013,3,6.6,52.8,WNW,0.7
H03,2019,12,7,1,0.001,0.003,0.018,0.2,0.006,0.019,6,6.8,58.3,W,1
H03,2019,12,7,2,0.001,0.004,0.015,0.2,0.006,0.02,8,6.5,59.3,WNW,0.5
H03,2019,12,7,3,0.001,0.007,0.017,0.2,0.005,0.017,6,6.1,58.8,N,1
H03,2019,12,7,4,0.002,0.007,0.016,0.2,0.004,0.016,7,6.1,61,N,1.1
H03,2019,12,7,5,0.002,0.007,0.017,0.2,0.005,0.015,8,6.3,62.4,N,1.3
H03,2019,12,7,6,0.001,0.005,0.019,0.2,0.005,0.015,6,6.5,55.6,N,1.5
H03,2019,12,7,7,0.001,0.006,0.018,0.2,0.01,0.02,5,6.6,54.4,NNE,0.8
H03,2019,12,7,8,0.002,0.007,0.011,0.3,0.015,0.027,7,6.5,57.3,NNE,1
H03,2019,12,7,9,0.002,0.011,0.006,0.3,0.034,0.033,12,6.7,58.1,NNE,0.6
H03,2019,12,7,10,0.002,0.015,0.004,0.3,0.069,0.041,18,7,56.3,N,0.4
H03,2019,12,7,11,0.002,0.018,0.006,0.3,0.051,0.038,18,7.6,49.1,NNE,0.9
H03,2019,12,7,12,0.002,0.019,0.008,0.3,0.047,0.034,20,7.5,57.4,NNW,0.6
H03,2019,12,7,13,0.002,0.016,0.014,0.3,0.019,0.024,17,8.3,54.4,NNW,1
H03,2019,12,7,14,0.002,0.018,0.01,0.3,0.029,0.033,17,8.6,52.4,NNW,0.7
H03,2019,12,7,15,0.002,0.014,0.014,0.3,0.017,0.028,12,8.8,50.2,NW,0.9
H03,2019,12,7,16,0.002,0.01,0.023,0.2,0.01,0.018,7,8.9,51.8,NW,1.3
H03,2019,12,7,17,0.001,0.012,0.021,0.2,0.012,0.02,12,8.7,52.5,NW,0.4
H03,2019,12,7,18,0.001,0.012,0.014,0.3,0.011,0.026,14,8.3,55.1,CALM,0.1
H03,2019,12,7,19,0.001,0.011,0.011,0.3,0.008,0.027,11,8.3,56.1,WNW,0.4
H03,2019,12,7,20,0.001,0.006,0.017,0.3,0.004,0.02,8,8.3,57.9,W,1.2
H03,2019,12,7,21,0.002,0.004,0.02,0.3,0.003,0.018,3,8.3,61.4,W,1.5
H03,2019,12,7,22,0.001,0.004,0.024,0.2,0.002,0.012,4,7.9,63.5,WNW,1.3
H03,2019,12,7,23,0.002,0.003,0.026,0.2,0.003,0.009,4,7.6,67,WNW,1.4
H03,2019,12,7,24,0.001,0.003,0.028,0.2,0.002,0.007,5,7.1,72.2,NW,0.6
H03,2019,12,8,1,0.001,0.004,0.028,0.2,0.001,0.006,6,6.4,75.7,WNW,1
H03,2019,12,8,2,0.001,0.005,0.026,0.2,0.001,0.007,4,6.3,75.8,WNW,1
H03,2019,12,8,3,0.001,0.005,0.027,0.2,0.002,0.007,6,6.4,75.1,WNW,1.2
H03,2019,12,8,4,0.001,0.006,0.024,0.2,0.002,0.008,6,6,77,WNW,0.8
H03,2019,12,8,5,0.001,0.004,0.025,0.2,0.001,0.007,6,6.1,76.2,N,0.4
H03,2019,12,8,6,0.001,0.008,0.023,0.2,0.003,0.011,5,6.3,75.6,N,0.7
H03,2019,12,8,7,0.001,0.01,0.023,0.2,0.002,0.012,8,6.3,76.1,NW,0.7
H03,2019,12,8,8,0.001,0.01,0.019,0.3,0.005,0.015,9,6.5,72.5,NW,0.5
H03,2019,12,8,9,0.002,0.008,0.02,0.3,0.007,0.014,11,8.5,66.8,NNW,0.9
H03,2019,12,8,10,0.001,0.011,0.027,0.3,0.005,0.011,9,10.7,57.9,NE,0.7
H03,2019,12,8,11,0.003,0.01,0.035,0.3,0.004,0.008,7,12.6,43.8,NW,1.4
H03,2019,12,8,12,0.001,0.003,0.041,0.2,0.003,0.005,5,13.5,38.6,NW,1.2
H03,2019,12,8,13,0.001,0.005,0.043,0.3,0.002,0.004,6,13.8,39.2,NW,1.4
H03,2019,12,8,14,0.001,0.004,0.042,0.2,0.002,0.005,4,13.8,39.5,NW,1.2
H03,2019,12,8,15,0,0.006,0.042,0.2,0.002,0.005,8,14.1,41.2,WNW,1.1
H03,2019,12,8,16,0.001,0.005,0.037,0.2,0.002,0.008,7,13.5,49.1,W,1.1
H03,2019,12,8,17,0.001,0.007,0.032,0.3,0.003,0.011,6,11.7,55.1,WNW,1.1
H03,2019,12,8,18,0.001,0.006,0.029,0.3,0.003,0.012,7,10.5,61.2,N,0.8
H03,2019,12,8,19,0.002,0.01,0.027,0.4,0.004,0.012,11,10.6,50.5,N,1.3
H03,2019,12,8,20,0.001,0.005,0.031,0.3,0.002,0.01,7,10.1,48.5,N,1.3
H03,2019,12,8,21,0.001,0.004,0.03,0.2,0.003,0.01,6,8.8,50.6,NNW,1.2
H03,2019,12,8,22,0.002,0.01,0.021,0.4,0.002,0.018,9,7.6,58.9,NW,0.7
H03,2019,12,8,23,0.004,0.011,0.017,0.5,0.002,0.019,10,7.2,59.6,NW,0.8
H03,2019,12,8,24,0.003,0.012,0.015,0.4,0.003,0.018,11,6.8,63.2,N,1.1
H03,2019,12,9,1,0.002,0.018,0.012,0.4,0.006,0.021,16,5.8,71.4,NW,0.4
H03,2019,12,9,2,0.001,0.012,0.011,0.3,0.006,0.019,9,5.5,69.7,NW,0.6
H03,2019,12,9,3,0.001,0.011,0.007,0.3,0.007,0.023,10,5.2,72.2,NNW,0.5
H03,2019,12,9,4,0.001,0.012,0.005,0.3,0.014,0.028,11,4.8,71.3,NW,0.7
H03,2019,12,9,5,0.002,0.011,0.003,0.3,0.033,0.031,11,4.4,72.5,NW,0.5
H03,2019,12,9,6,0.001,0.01,0.002,0.3,0.049,0.033,9,4.7,72.8,NW,0.7
H03,2019,12,9,7,0.001,0.013,0.002,0.3,0.068,0.033,11,5.6,70.7,NNW,0.7
H03,2019,12,9,8,0.002,0.016,0.002,0.4,0.084,0.036,18,6.5,62.8,N,0.9
H03,2019,12,9,9,0.002,0.024,0.003,0.5,0.119,0.038,24,7.9,59.1,NNE,0.7
H03,2019,12,9,10,0.002,0.024,0.004,0.4,0.09,0.039,24,9.7,52.2,NNE,0.8
H03,2019,12,9,11,0.002,0.024,0.005,0.4,0.112,0.042,23,11.2,48.5,NE,0.8
H03,2019,12,9,12,0.002,0.017,0.005,0.4,0.076,0.04,18,11.7,47.6,NE,0.7
H03,2019,12,9,13,0.002,0.024,0.007,0.4,0.063,0.042,22,12.6,45.7,NNW,0.4
H03,2019,12,9,14,0.002,0.027,0.006,0.4,0.106,0.048,26,13.4,44.5,NNE,0.4
H03,2019,12,9,15,0.002,0.025,0.004,0.4,0.114,0.054,23,13.6,45.8,NNE,0.4
H03,2019,12,9,16,0.002,0.028,0.004,0.4,0.1,0.052,22,13.3,48.6,NE,0.5
H03,2019,12,9,17,0.002,0.029,0.003,0.4,0.115,0.058,24,12.9,52.2,NNE,0.3
H03,2019,12,9,18,0.002,0.031,0.003,0.5,0.098,0.05,28,12.4,54.9,N,0.3
H03,2019,12,9,19,0.002,0.037,0.003,0.5,0.088,0.049,34,12.1,55.2,N,0.4
H03,2019,12,9,20,0.002,0.031,0.003,0.4,0.055,0.048,28,11.8,54.4,N,0.3
H03,2019,12,9,21,0.001,0.029,0.003,0.4,0.032,0.042,26,11.4,57.2,NNW,0.4
H03,2019,12,9,22,0.001,0.025,0.003,0.4,0.031,0.04,25,11.2,59.8,N,0.7
H03,2019,12,9,23,0.002,0.026,0.003,0.5,0.029,0.038,26,10.7,64.7,NNW,0.3
H03,2019,12,9,24,0.002,0.023,0.003,0.5,0.033,0.036,25,10.5,68.3,NW,0.6
H03,2019,12,10,1,0.002,0.024,0.003,0.4,0.027,0.033,25,10.1,72.8,N,0.3
H03,2019,12,10,2,0.001,0.026,0.003,0.5,0.026,0.029,24,9.8,75.5,NNW,0.6
H03,2019,12,10,3,0.001,0.022,0.003,0.4,0.032,0.028,21,9.7,77.1,NNW,0.5
H03,2019,12,10,4,0.001,0.021,0.003,0.4,0.029,0.026,21,9.3,78.8,NW,0.9
H03,2019,12,10,5,0.001,0.018,0.002,0.4,0.026,0.025,17,9.5,77.7,NNW,1
H03,2019,12,10,6,0.001,0.017,0.002,0.3,0.064,0.025,17,9.6,76.2,NW,0.4
H03,2019,12,10,7,0.002,0.015,0.002,0.4,0.07,0.028,14,9.2,77.9,N,0.6
H03,2019,12,10,8,0.002,0.027,0.003,0.6,0.092,0.029,30,9.9,71.1,NE,0.6
H03,2019,12,10,9,0.003,0.026,0.004,0.4,0.101,0.034,22,11.1,67.4,NW,0.8
H03,2019,12,10,10,0.003,0.022,0.005,0.4,0.11,0.035,22,13.4,57.5,NNE,0.7
H03,2019,12,10,11,0.002,0.021,0.009,0.4,0.056,0.03,16,15.2,53.5,NNE,0.8
H03,2019,12,10,12,0.002,0.025,0.008,0.4,0.087,0.041,20,16.1,50.7,NNE,0.9
H03,2019,12,10,13,0.002,0.02,0.016,0.3,0.046,0.039,15,16.5,50,NNE,0.8
H03,2019,12,10,14,0.001,0.017,0.007,0.3,0.09,0.054,16,17.1,49.1,NNE,0.4
H03,2019,12,10,15,0.001,0.017,0.012,0.3,0.081,0.05,13,17.3,47.2,NNW,0.3
H03,2019,12,10,16,0.001,0.017,0.006,0.3,0.084,0.063,13,17.1,47.1,NNE,0.4
H03,2019,12,10,17,0.002,0.029,0.004,0.3,0.132,0.071,25,15.9,51.6,NNE,0.3
H03,2019,12,10,18,0.003,0.034,0.003,0.5,0.127,0.066,28,14.4,57.9,N,0.3
H03,2019,12,10,19,0.003,0.031,0.003,0.5,0.114,0.06,30,13.2,62.2,NNW,0.5
H03,2019,12,10,20,0.002,0.029,0.003,0.5,0.065,0.05,25,12.3,67.4,N,0.4
H03,2019,12,10,21,0.003,0.03,0.005,0.5,0.026,0.041,27,12,64.8,NNE,0.7
H03,2019,12,10,22,0.005,0.027,0.007,0.4,0.015,0.038,25,12,57.8,NNE,1
H03,2019,12,10,23,0.006,0.024,0.006,0.4,0.014,0.038,24,10.9,61.9,NW,0.5
H03,2019,12,10,24,0.004,0.027,0.005,0.4,0.018,0.034,25,9.8,68.6,NW,0.8
H03,2019,12,11,1,������,0.037,0.004,�Z����,������,������,32,9.3,75,NW,1
H03,2019,12,11,2,0.002,0.018,0.007,0.3,0.007,0.021,16,9.5,75.3,NW,0.8
H03,2019,12,11,3,0.002,0.012,0.007,0.3,0.007,0.022,14,9.4,76.2,N,1.5
H03,2019,12,11,4,0.002,0.016,0.005,0.3,0.009,0.023,17,8.6,79.5,NW,0.9
H03,2019,12,11,5,0.001,0.016,0.003,0.3,0.028,0.026,17,8.2,81.4,NNW,0.8
H03,2019,12,11,6,0.002,0.018,0.003,0.3,0.081,0.029,21,7.5,82.7,NW,0.7
H03,2019,12,11,7,0.001,0.018,0.002,0.3,0.093,0.031,16,7.3,82.1,N,0.3
H03,2019,12,11,8,0.002,0.027,0.003,0.5,0.137,0.037,27,7.4,79.4,N,0.4
H03,2019,12,11,9,0.002,0.039,0.003,0.6,0.153,0.037,39,9.7,73.1,NNW,0.3
H03,2019,12,11,10,0.002,0.038,0.003,0.5,0.162,0.04,39,11.8,64.9,N,0.8
H03,2019,12,11,11,0.002,0.024,0.006,0.4,0.073,0.034,21,13.8,56.7,NE,0.8
H03,2019,12,11,12,0.002,0.019,0.009,0.3,0.056,0.037,17,15.3,49.2,NE,0.8
H03,2019,12,11,13,0.002,0.017,0.01,0.3,0.047,0.041,17,15.4,48.6,NNW,0.5
H03,2019,12,11,14,0.002,0.021,0.006,0.3,0.099,0.055,22,15.9,49.2,NNE,0.3
H03,2019,12,11,15,0.002,0.025,0.004,0.3,0.119,0.053,22,15.5,51.2,NNE,0.6
H03,2019,12,11,16,0.003,0.034,0.004,0.4,0.119,0.059,29,15,57.2,NE,0.5
H03,2019,12,11,17,0.004,0.039,0.003,0.4,0.124,0.063,32,14.5,59.9,ENE,0.6
H03,2019,12,11,18,0.004,0.044,0.004,0.6,0.16,0.063,35,13.9,62.4,CALM,0.2
H03,2019,12,11,19,0.003,0.047,0.006,0.6,0.136,0.055,40,13.5,69.1,W,0.7
H03,2019,12,11,20,0.004,0.047,0.004,0.6,0.097,0.051,39,12.8,67.8,NE,0.4
H03,2019,12,11,21,0.003,0.044,0.003,0.6,0.063,0.043,39,11.3,69.6,NW,0.6
H03,2019,12,11,22,0.002,0.04,0.004,0.5,0.022,0.04,35,11.6,62.2,N,0.3
H03,2019,12,11,23,0.003,0.029,0.009,0.4,0.01,0.037,28,10.2,68,SE,0.4
H03,2019,12,11,24,0.003,0.03,0.008,0.4,0.028,0.038,32,10.1,69.4,NE,0.4
H03,2019,12,12,1,0.003,0.032,0.009,0.5,0.034,0.039,33,10.1,69.9,NE,0.6
H03,2019,12,12,2,0.003,0.037,0.006,0.5,0.022,0.037,38,10.2,70.3,E,1
H03,2019,12,12,3,0.003,0.039,0.004,0.5,0.016,0.039,41,10.2,70.7,ENE,0.8
H03,2019,12,12,4,0.003,0.04,0.005,0.5,0.017,0.042,39,10.2,72.2,NE,0.7
H03,2019,12,12,5,0.005,0.046,0.005,0.6,0.029,0.043,44,9.9,75,NE,0.9
H03,2019,12,12,6,0.007,0.05,0.005,0.9,0.075,0.044,46,11.4,70.9,NE,0.9
H03,2019,12,12,7,0.004,0.041,0.005,0.6,0.066,0.042,36,11.4,70.4,NNE,0.8
H03,2019,12,12,8,0.003,0.029,0.01,0.5,0.061,0.039,23,13.2,57.5,NW,1.8
H03,2019,12,12,9,0.003,0.029,0.013,0.4,0.061,0.039,27,14.3,51.5,NW,1.3
H03,2019,12,12,10,0.002,0.029,0.013,0.3,0.071,0.041,21,13.9,51.9,NW,1.6
H03,2019,12,12,11,0.002,0.019,0.013,0.3,0.071,0.042,12,14,49.2,WNW,1.8
H03,2019,12,12,12,0.002,0.015,0.016,0.2,0.061,0.035,14,13.1,49.6,WNW,2.6
H03,2019,12,12,13,0.001,0.017,0.022,0.2,0.042,0.028,10,12.9,47.5,WNW,2.6
H03,2019,12,12,14,0.002,0.018,0.018,0.2,0.059,0.03,10,12.7,45.7,WNW,2.3
H03,2019,12,12,15,0.002,0.016,0.019,0.2,0.044,0.03,11,11.3,51.9,NW,1.8
H03,2019,12,12,16,0.001,0.017,0.018,0.2,0.043,0.03,13,9.9,56.2,NW,1
H03,2019,12,12,17,0.001,0.008,0.014,0.2,0.043,0.03,6,9.4,58.8,NNW,1.4
H03,2019,12,12,18,0.001,0.008,0.018,0.2,0.029,0.025,6,8.8,62.2,WNW,1.5
H03,2019,12,12,19,0.001,0.007,0.013,0.2,0.035,0.028,3,8.7,60,WNW,1.1
H03,2019,12,12,20,0.001,0.005,0.018,0.2,0.021,0.022,5,8,60.9,NW,1.2
H03,2019,12,12,21,0.001,0.006,0.025,0.2,0.009,0.011,3,7.8,58.3,NW,1.3
H03,2019,12,12,22,0.001,0.003,0.028,0.2,0.005,0.008,2,7.6,59.5,NW,1.5
H03,2019,12,12,23,0.001,0.002,0.027,0.2,0.005,0.008,2,7.1,60.8,NW,1.2
H03,2019,12,12,24,0.001,0.004,0.024,0.2,0.007,0.009,2,6.9,62.4,NW,1.2
H03,2019,12,13,1,0.001,0.001,0.022,0.2,0.004,0.01,6,6.5,65.6,N,1.2
H03,2019,12,13,2,0.001,0.006,0.018,0.2,0.003,0.012,2,5.9,69.6,N,1
H03,2019,12,13,3,0.001,0.006,0.014,0.2,0.009,0.018,5,5.9,67.8,NW,0.4
H03,2019,12,13,4,0.001,0.003,0.01,0.2,0.014,0.023,6,6,66.4,NW,0.5
H03,2019,12,13,5,0.002,0.009,0.006,0.2,0.02,0.029,7,6.1,63.9,N,0.9
H03,2019,12,13,6,0.002,0.008,0.003,0.2,0.035,0.036,7,5.6,69.4,N,1.7
H03,2019,12,13,7,0.002,0.008,0.003,0.2,0.054,0.032,7,5.1,70,NW,0.8
H03,2019,12,13,8,0.002,0.011,0.003,0.3,0.079,0.033,9,5.5,68.4,N,0.8
H03,2019,12,13,9,0.003,0.015,0.004,0.4,0.099,0.037,17,7.8,53.9,NNE,0.8
H03,2019,12,13,10,0.005,0.017,0.007,0.3,0.083,0.041,19,9.4,40.9,N,0.8
H03,2019,12,13,11,0.002,0.011,0.009,0.2,0.088,0.045,9,10.5,34.8,NW,0.6
H03,2019,12,13,12,0.002,0.011,0.011,0.2,0.077,0.041,10,11.5,33.2,N,0.9
H03,2019,12,13,13,0.001,0.008,0.019,0.2,0.038,0.027,8,12.1,32.1,NW,0.8
H03,2019,12,13,14,0.001,0.012,0.012,0.2,0.064,0.037,9,12,35.1,N,0.8
H03,2019,12,13,15,0.002,0.009,0.008,0.2,0.105,0.043,11,12.5,36.5,N,0.5
H03,2019,12,13,16,0.002,0.009,0.006,0.2,0.113,0.051,8,12,41.2,WNW,0.7
H03,2019,12,13,17,0.002,0.01,0.004,0.3,0.101,0.049,12,10.9,46.1,NNW,0.4
H03,2019,12,13,18,0.002,0.011,0.004,0.3,0.076,0.045,12,10.1,51.2,N,0.3
H03,2019,12,13,19,0.002,0.015,0.003,0.3,0.077,0.044,9,9.4,54.1,NW,0.3
H03,2019,12,13,20,0.001,0.008,0.005,0.3,0.041,0.037,8,8.7,59.1,NW,0.3
H03,2019,12,13,21,0.001,0.008,0.005,0.3,0.019,0.033,8,8.7,61,W,0.3
H03,2019,12,13,22,0.001,0.014,0.005,0.4,0.021,0.032,16,8.3,61.4,CALM,0.2
H03,2019,12,13,23,0.001,0.022,0.005,0.4,0.022,0.036,23,8.9,58.5,NNE,0.9
H03,2019,12,13,24,0.002,0.014,0.004,0.4,0.016,0.032,13,6.5,68.7,NW,0.7
H03,2019,12,14,1,0.002,0.017,0.003,0.4,0.01,0.026,17,5.6,74.8,NW,0.6
H03,2019,12,14,2,0.002,0.017,0.004,0.4,0.009,0.022,15,5.3,74.7,NW,0.5
H03,2019,12,14,3,0.001,0.013,0.007,0.3,0.005,0.017,12,5.7,72.2,N,1
H03,2019,12,14,4,0.001,0.015,0.005,0.3,0.011,0.02,17,4.9,74.8,NNW,0.4
H03,2019,12,14,5,0.001,0.012,0.003,0.3,0.021,0.024,15,5.1,74.2,N,0.8
H03,2019,12,14,6,0.002,0.011,0.002,0.3,0.049,0.026,12,4,78.8,NNW,0.4
H03,2019,12,14,7,0.002,0.013,0.002,0.4,0.068,0.025,13,3.4,79.4,NW,0.7
H03,2019,12,14,8,0.003,0.017,0.003,0.4,0.065,0.023,15,4.3,73.7,NNE,1.2
H03,2019,12,14,9,0.001,0.017,0.005,0.3,0.04,0.019,17,6.1,65.5,N,1.2
H03,2019,12,14,10,0.003,0.014,0.009,0.3,0.034,0.02,16,8,58.5,N,1.2
H03,2019,12,14,11,0.002,0.017,0.009,0.3,0.035,0.026,13,9.8,52.6,N,0.7
H03,2019,12,14,12,0.002,0.017,0.011,0.3,0.045,0.027,14,11.1,44.4,NNE,0.5
H03,2019,12,14,13,0.002,0.012,0.025,0.4,0.012,0.017,8,12.8,42.5,SSE,0.8
H03,2019,12,14,14,0.004,0.016,0.019,0.5,0.023,0.028,12,13.3,46,WSW,0.7
H03,2019,12,14,15,0.003,0.017,0.018,0.3,0.018,0.029,16,13.2,48.1,NW,0.8
H03,2019,12,14,16,0.003,0.024,0.012,0.4,0.017,0.029,23,12.2,50.1,NW,1.7
H03,2019,12,14,17,0.003,0.02,0.017,0.4,0.008,0.021,20,11.4,63.7,NW,1.9
H03,2019,12,14,18,0.001,0.008,0.035,0.3,0.003,0.01,8,10.8,67.2,NW,1.8
H03,2019,12,14,19,0.001,0.006,0.037,0.3,0.004,0.008,6,10.7,63.4,NW,0.9
H03,2019,12,14,20,0.001,0.007,0.035,0.3,0.004,0.01,8,10.1,64.6,NW,0.9
H03,2019,12,14,21,0.001,0.009,0.036,0.3,0.003,0.007,8,9.8,63.2,NW,1.4
H03,2019,12,14,22,0.001,0.009,0.037,0.3,0.001,0.005,6,8.9,65.4,NW,1.4
H03,2019,12,14,23,0.001,0.01,0.034,0.3,0.002,0.006,7,8.5,60.5,NW,1
H03,2019,12,14,24,0.001,0.014,0.033,0.3,0.001,0.007,12,7.8,58,WNW,1.2
H03,2019,12,15,1,0.003,0.015,0.032,0.3,0.002,0.007,14,7.7,54.6,NW,1.3
H03,2019,12,15,2,0.004,0.018,0.033,0.4,0.001,0.007,15,8.3,45.3,NW,2
H03,2019,12,15,3,0.003,0.013,0.036,0.2,0.001,0.005,12,7.6,46.3,NW,1.5
H03,2019,12,15,4,0.001,0.01,0.036,0.2,0.001,0.003,7,7,47.2,NW,1.3
H03,2019,12,15,5,0.001,0.01,0.034,0.2,0.001,0.004,9,6.6,48.4,NW,1.3
H03,2019,12,15,6,0.002,0.009,0.031,0.2,0.002,0.006,7,6,51.8,NW,0.9
H03,2019,12,15,7,0.001,0.008,0.031,0.2,0.002,0.006,9,5.6,54.3,NW,0.6
H03,2019,12,15,8,0.001,0.01,0.027,0.2,0.004,0.01,8,6.2,53.7,NW,0.7
H03,2019,12,15,9,0.001,0.012,0.026,0.2,0.006,0.012,12,6.9,51.6,NW,0.7
H03,2019,12,15,10,0.001,0.012,0.028,0.2,0.004,0.009,15,8.4,46.9,NW,1.3
H03,2019,12,15,11,0.002,0.012,0.034,0.2,0.002,0.004,9,9.9,39.4,NNW,2.3
H03,2019,12,15,12,0.001,0.013,0.035,0.2,0.002,0.004,12,11.2,36.4,N,1.9
H03,2019,12,15,13,0.002,0.01,0.036,0.2,0.002,0.004,8,12.2,33.6,N,2.2
H03,2019,12,15,14,0.002,0.008,0.037,0.2,0.001,0.003,7,12.5,33.5,NW,1.2
H03,2019,12,15,15,0.001,0.009,0.036,0.2,0.002,0.004,9,12.5,33.6,NW,1
H03,2019,12,15,16,0.001,0.01,0.034,0.2,0.002,0.005,7,12.2,37.1,NW,0.8
H03,2019,12,15,17,0.001,0.011,0.028,0.2,0.005,0.009,11,10.4,48.4,W,0.8
H03,2019,12,15,18,0.001,0.007,0.021,0.2,0.005,0.016,8,8.9,52.4,WNW,0.5
H03,2019,12,15,19,0.001,0.008,0.02,0.2,0.003,0.015,10,8,56.1,WNW,0.5
H03,2019,12,15,20,0.001,0.01,0.017,0.3,0.005,0.016,10,7.4,56.9,NW,0.5
H03,2019,12,15,21,0.001,0.013,0.017,0.3,0.003,0.015,11,6.5,61.3,N,0.6
H03,2019,12,15,22,0.001,0.012,0.015,0.3,0.002,0.017,12,6.7,57.5,N,1.1
H03,2019,12,15,23,0.001,0.01,0.024,0.2,0.001,0.01,9,6.9,55.2,N,1.6
H03,2019,12,15,24,0.001,0.009,0.025,0.2,0.002,0.008,10,6.4,56,NNW,1.4
H03,2019,12,16,1,0.001,0.018,0.019,0.3,0.002,0.012,14,5.8,59.5,N,1.4
H03,2019,12,16,2,0.001,0.016,0.015,0.2,0.001,0.014,12,6.3,59.5,NNE,1.5
H03,2019,12,16,3,0.002,0.012,0.014,0.3,0.004,0.014,12,5.4,62.6,NW,0.8
H03,2019,12,16,4,0.002,0.012,0.009,0.3,0.007,0.017,12,4.8,65.8,NW,0.7
H03,2019,12,16,5,0.001,0.01,0.007,0.3,0.011,0.022,10,5.2,63.3,NNW,1
H03,2019,12,16,6,0.002,0.011,0.004,0.3,0.027,0.023,11,5.4,63.4,NNW,0.7
H03,2019,12,16,7,0.002,0.014,0.003,0.3,0.057,0.029,14,5.6,63.6,NNE,0.8
H03,2019,12,16,8,0.001,0.018,0.003,0.3,0.08,0.03,15,6.4,60.1,NNW,0.6
H03,2019,12,16,9,0.001,0.021,0.004,0.4,0.126,0.038,20,7.6,56,N,1
H03,2019,12,16,10,0.003,0.029,0.004,0.4,0.121,0.038,26,9.2,50.6,N,1
H03,2019,12,16,11,0.002,0.033,0.005,0.4,0.096,0.042,29,10.6,48.7,N,0.5
H03,2019,12,16,12,0.002,0.03,0.005,0.4,0.108,0.046,28,11.8,46,N,0.5
H03,2019,12,16,13,0.001,0.021,0.007,0.3,0.069,0.041,20,13,41.3,N,0.6
H03,2019,12,16,14,0.003,0.024,0.009,0.4,0.062,0.04,19,14.1,41.3,NNE,0.8
H03,2019,12,16,15,0.002,0.029,0.009,0.4,0.062,0.05,24,14.5,43.6,SW,0.6
H03,2019,12,16,16,0.004,0.028,0.007,0.3,0.079,0.048,25,14.7,47.2,ENE,0.5
H03,2019,12,16,17,0.003,0.038,0.005,0.3,0.104,0.055,32,12.7,63.2,SW,0.9
H03,2019,12,16,18,0.004,0.023,0.004,0.3,0.103,0.053,20,12.1,68.5,WSW,0.5
H03,2019,12,16,19,0.005,0.026,0.009,0.4,0.102,0.057,23,11.9,70.9,SW,0.4
H03,2019,12,16,20,0.004,0.02,0.011,0.4,0.078,0.049,19,12.4,68.3,SSE,0.3
H03,2019,12,16,21,0.003,0.02,0.008,0.3,0.018,0.042,18,12.7,68.4,CALM,0.1
H03,2019,12,16,22,0.004,0.028,0.012,0.4,0.075,0.049,24,12.3,69.8,NNW,0.3
H03,2019,12,16,23,0.004,0.036,0.007,0.7,0.1,0.053,31,12.5,66.1,NW,0.4
H03,2019,12,16,24,0.003,0.036,0.004,0.7,0.102,0.05,32,11.7,73.3,WNW,0.4
H03,2019,12,17,1,0.002,0.035,0.003,0.6,0.063,0.041,31,11.3,71.6,NNW,0.5
H03,2019,12,17,2,0.001,0.031,0.003,0.5,0.026,0.034,26,11.1,75.4,NNW,0.5
H03,2019,12,17,3,0.002,0.025,0.003,0.5,0.022,0.03,23,10.8,78.6,NW,0.7
H03,2019,12,17,4,0.002,0.021,0.007,0.3,0.007,0.02,18,9.9,88.5,NW,1.3
H03,2019,12,17,5,0.002,0.016,0.01,0.3,0.011,0.02,17,9.9,93.4,NW,0.6
H03,2019,12,17,6,0.001,0.012,0.009,0.2,0.014,0.027,14,10.4,93.8,NNE,1.1
H03,2019,12,17,7,0.001,0.012,0.006,0.3,0.024,0.033,10,10.8,92.8,ENE,0.7
H03,2019,12,17,8,0.002,0.015,0.003,0.4,0.052,0.039,12,11.5,91.3,NE,0.7
H03,2019,12,17,9,0.002,0.018,0.002,0.5,0.109,0.044,17,11.2,90.9,NNE,0.4
H03,2019,12,17,10,0.002,0.023,0.003,0.5,0.16,0.046,24,11.9,87.6,N,0.3
H03,2019,12,17,11,0.002,0.024,0.003,0.5,0.138,0.045,24,12.1,86.3,NNE,0.7
H03,2019,12,17,12,0.002,0.026,0.003,0.4,0.103,0.042,22,12.3,84.7,NNE,1.1
H03,2019,12,17,13,0.002,0.022,0.004,0.4,0.076,0.04,20,12.4,87.6,NW,0.5
H03,2019,12,17,14,0.002,0.019,0.003,0.4,0.092,0.043,20,12.6,89.1,NE,0.8
H03,2019,12,17,15,0.004,0.026,0.003,0.4,0.099,0.041,27,12.7,89.8,NE,0.7
H03,2019,12,17,16,0.003,0.025,0.002,0.5,0.121,0.045,22,12.7,90.9,NNE,0.6
H03,2019,12,17,17,0.003,0.022,0.002,0.4,0.112,0.041,22,12.8,91.2,CALM,0.2
H03,2019,12,17,18,0.003,0.02,0.002,0.5,0.116,0.041,18,12.5,91.6,CALM,0.2
H03,2019,12,17,19,0.003,0.018,0.003,0.4,0.08,0.041,14,12.5,93.1,NNE,0.6
H03,2019,12,17,20,0.002,0.014,0.003,0.4,0.058,0.037,15,12.4,94.3,CALM,0.1
H03,2019,12,17,21,0.002,0.011,0.003,0.4,0.025,0.035,12,12.3,94.6,NNW,0.3
H03,2019,12,17,22,0.002,0.02,0.003,0.4,0.018,0.032,18,12.2,94.7,NNW,0.3